Regional Weather Roundup
Issued by NWS

Home | Current Version | Previous Version | Graphics & Text | Print | Product List | Glossary On
Versions: 1 2 3 4 5 6 7 8 9 10 11 12 13 14 15 16 17 18 19 20 21 22 23 24 25 26 27 28 29 30 31 32 33 34 35 36 37 38 39 40 41 42 43 44 45 46 47 48 49 50
000
ASUS45 KBOI 042210
RWRID

IDAHO REGIONAL WEATHER ROUNDUP
NATIONAL WEATHER SERVICE BOISE ID
400 PM MDT TUE AUG 04 2015

NOTE: "FAIR" INDICATES FEW OR NO CLOUDS BELOW 12000 FEET
WITH NO SIGNIFICANT WEATHER AND/OR OBSTRUCTIONS TO VISIBILITY

IDZ012-014-042300-
SOUTHWEST IDAHO


CITY           SKY/WX    TMP DP  RH WIND       PRES   REMARKS
BOISE          SUNNY     90  47  22 VRB5      29.91F
CALDWELL       SUNNY     90  48  24 CALM      29.92F
MOUNTAIN HOME  SUNNY     92  45  19 VRB5      29.90F
$$

IDZ016-017-042300-
SOUTHCENTRAL IDAHO


CITY           SKY/WX    TMP DP  RH WIND       PRES   REMARKS
BURLEY         MOSUNNY   86  50  28 N5        29.96F
JEROME         SUNNY     88  48  25 W3        29.97F
TWIN FALLS     MOSUNNY   86  48  26 CALM      29.97F
$$

IDZ019>023-042300-
SOUTHEAST IDAHO


CITY           SKY/WX    TMP DP  RH WIND       PRES   REMARKS
IDAHO FALLS    MOSUNNY   86  48  26 S15G25    30.03F
POCATELLO      PTSUNNY   89  38  16 CALM      30.01F
REXBURG        MOSUNNY   80  47  31 SW9       30.05F
$$

IDZ006-010-011-018-031-032-042300-
CENTRAL IDAHO MOUNTAINS


CITY           SKY/WX    TMP DP  RH WIND       PRES   REMARKS
MCCALL         SUNNY     81  39  22 SW13G22   30.05F
HAILEY         MOSUNNY   82  46  28 S5        30.07F
STANLEY          N/A     77  29  17 SW7G16    30.14F
SALMON         MOSUNNY   84  43  23 S5        29.92S
CHALLIS        MOSUNNY   87  29  12 SW14G24   30.00F
$$

IDZ002-004-006-007-026-042300-
NORTHERN IDAHO


CITY           SKY/WX    TMP DP  RH WIND       PRES   REMARKS
LEWISTON       MOSUNNY   92  41  17 CALM      29.84F
LOWELL           N/A     98  44  15 CALM      29.80F HX  94
COEUR D`ALENE  SUNNY     84  43  23 S15       29.87F
MULLAN PASS    MOSUNNY   69  38  32 VRB5      30.11F
$$



USA.gov is the U.S. government's official web portal to all federal, state and local government web resources and services.